When you browse on this site, cookies collect data to enhance your experience and personalize the content and advertising you see.
Visit our Privacy Policy to learn more. By continuing to use the site, you agree to this use of cookies and data.
  • în România
  • Lista ţărilor
  • Pe 7 zile
  • Temperatura apei
  • Meteo pe hartă
  • Widget-uri
  • user-avatar
    Intrare

    Meteo pe oră la A Coruna

    Astăzi, 23 Februarie, Duminică

    Timp Temperatura Precipitaţii Vânt Presiune Umiditate
    00:00 +9°C° 0 mm 1 m/s 773 mmHg 91%
    01:00 +8°C° 0 mm 0 m/s 772 mmHg 90%
    02:00 +8°C° 0 mm 0 m/s 772 mmHg 90%
    03:00 +9°C° 0 mm 1 m/s 772 mmHg 89%
    04:00 +9°C° 0 mm 1 m/s 772 mmHg 87%
    05:00 +9°C° 0 mm 1 m/s 772 mmHg 86%
    06:00 +10°C° 0 mm 1 m/s 772 mmHg 81%
    07:00 +11°C° 0 mm 1 m/s 772 mmHg 76%
    08:00 +11°C° 0 mm 0 m/s 772 mmHg 70%
    09:00 +15°C° 0 mm 1 m/s 772 mmHg 62%
    10:00 +19°C° 0 mm 1 m/s 773 mmHg 54%
    11:00 +21°C° 0 mm 1 m/s 773 mmHg 45%
    12:00 +21°C° 0 mm 1 m/s 772 mmHg 48%
    13:00 +20°C° 0 mm 1 m/s 771 mmHg 52%
    14:00 +20°C° 0 mm 1 m/s 771 mmHg 55%
    15:00 +18°C° 0 mm 1 m/s 771 mmHg 65%
    16:00 +15°C° 0 mm 1 m/s 771 mmHg 75%
    17:00 +13°C° 0 mm 1 m/s 771 mmHg 86%
    18:00 +12°C° 0 mm 1 m/s 771 mmHg 87%
    19:00 +11°C° 0 mm 1 m/s 771 mmHg 88%
    20:00 +10°C° 0 mm 1 m/s 770 mmHg 89%
    21:00 +10°C° 0 mm 1 m/s 771 mmHg 88%
    22:00 +10°C° 0 mm 1 m/s 771 mmHg 87%
    23:00 +10°C° 0 mm 1 m/s 771 mmHg 86%

    Mâine, 24 Februarie, Luni

    Timp Temperatura Precipitaţii Vânt Presiune Umiditate
    00:00 +10°C° 0 mm 1 m/s 770 mmHg 86%
    01:00 +10°C° 0 mm 1 m/s 770 mmHg 86%
    02:00 +10°C° 0 mm 1 m/s 769 mmHg 85%
    03:00 +9°C° 0 mm 1 m/s 769 mmHg 84%
    04:00 +9°C° 0 mm 1 m/s 769 mmHg 82%
    05:00 +9°C° 0 mm 1 m/s 768 mmHg 81%
    06:00 +9°C° 0 mm 2 m/s 768 mmHg 75%
    07:00 +10°C° 0 mm 2 m/s 768 mmHg 70%
    08:00 +12°C° 0 mm 2 m/s 768 mmHg 64%
    09:00 +13°C° 0 mm 3 m/s 768 mmHg 57%
    10:00 +17°C° 0 mm 3 m/s 768 mmHg 50%
    11:00 +19°C° 0 mm 4 m/s 768 mmHg 42%
    12:00 +19°C° 0 mm 4 m/s 767 mmHg 44%
    13:00 +19°C° 0 mm 5 m/s 767 mmHg 46%
    14:00 +17°C° 0 mm 5 m/s 766 mmHg 48%
    15:00 +16°C° 0 mm 5 m/s 766 mmHg 56%
    16:00 +14°C° 0 mm 5 m/s 766 mmHg 65%
    17:00 +12°C° 0 mm 4 m/s 766 mmHg 74%
    18:00 +11°C° 0 mm 4 m/s 766 mmHg 79%
    19:00 +10°C° 0 mm 4 m/s 766 mmHg 84%
    20:00 +8°C° 0 mm 4 m/s 766 mmHg 90%
    21:00 +10°C° 0 mm 4 m/s 766 mmHg 90%
    22:00 +9°C° 0 mm 5 m/s 766 mmHg 90%
    23:00 +9°C° 0 mm 5 m/s 765 mmHg 90%

    Poimâine, 25 Februarie, Marţi

    Timp Temperatura Precipitaţii Vânt Presiune Umiditate
    00:00 +9°C° 0.9 mm 5 m/s 765 mmHg 92%
    01:00 +9°C° 0.9 mm 5 m/s 765 mmHg 93%
    02:00 +10°C° 0.9 mm 5 m/s 765 mmHg 95%
    03:00 +11°C° 1.2 mm 4 m/s 765 mmHg 96%
    04:00 +11°C° 1.2 mm 4 m/s 765 mmHg 97%
    05:00 +12°C° 1.2 mm 3 m/s 765 mmHg 98%
    06:00 +12°C° 0.2 mm 3 m/s 765 mmHg 97%
    07:00 +12°C° 0.2 mm 3 m/s 765 mmHg 97%
    08:00 +12°C° 0.2 mm 4 m/s 765 mmHg 97%
    09:00 +12°C° 0.1 mm 3 m/s 766 mmHg 95%
    10:00 +12°C° 0.1 mm 3 m/s 766 mmHg 92%
    11:00 +11°C° 0.1 mm 3 m/s 766 mmHg 90%
    12:00 +12°C° 0 mm 4 m/s 766 mmHg 85%
    13:00 +12°C° 0 mm 4 m/s 766 mmHg 79%
    14:00 +12°C° 0 mm 4 m/s 765 mmHg 73%
    15:00 +12°C° 0 mm 4 m/s 766 mmHg 75%
    16:00 +11°C° 0 mm 4 m/s 766 mmHg 77%
    17:00 +10°C° 0 mm 4 m/s 766 mmHg 79%
    18:00 +10°C° 0.1 mm 4 m/s 766 mmHg 81%
    19:00 +8°C° 0.1 mm 4 m/s 767 mmHg 84%
    20:00 +8°C° 0.1 mm 4 m/s 767 mmHg 86%
    21:00 +8°C° 0.1 mm 4 m/s 767 mmHg 87%
    22:00 +8°C° 0.1 mm 4 m/s 767 mmHg 87%
    23:00 +8°C° 0.1 mm 4 m/s 768 mmHg 88%

    26 Februarie, Miercuri

    Timp Temperatura Precipitaţii Vânt Presiune Umiditate
    00:00 +8°C° 0.1 mm 4 m/s 768 mmHg 88%
    01:00 +8°C° 0.1 mm 4 m/s 767 mmHg 88%
    02:00 +8°C° 0.1 mm 4 m/s 767 mmHg 89%
    03:00 +8°C° 0.1 mm 4 m/s 767 mmHg 89%
    04:00 +9°C° 0.1 mm 3 m/s 767 mmHg 90%
    05:00 +8°C° 0.1 mm 3 m/s 767 mmHg 90%
    06:00 +9°C° 0 mm 3 m/s 768 mmHg 88%
    07:00 +9°C° 0 mm 3 m/s 768 mmHg 86%
    08:00 +9°C° 0 mm 3 m/s 768 mmHg 83%
    09:00 +10°C° 0 mm 3 m/s 769 mmHg 78%
    10:00 +10°C° 0 mm 3 m/s 769 mmHg 73%
    11:00 +12°C° 0 mm 2 m/s 769 mmHg 69%
    12:00 +11°C° 0 mm 3 m/s 768 mmHg 67%
    13:00 +11°C° 0 mm 3 m/s 768 mmHg 66%
    14:00 +11°C° 0 mm 3 m/s 768 mmHg 64%
    15:00 +10°C° 0 mm 2 m/s 767 mmHg 70%
    16:00 +9°C° 0 mm 2 m/s 767 mmHg 75%
    17:00 +9°C° 0 mm 1 m/s 767 mmHg 81%
    18:00 +7°C° 0 mm 2 m/s 767 mmHg 84%
    19:00 +7°C° 0 mm 2 m/s 767 mmHg 88%
    20:00 +6°C° 0 mm 2 m/s 768 mmHg 92%
    21:00 +5°C° 0 mm 3 m/s 767 mmHg 91%
    22:00 +5°C° 0 mm 3 m/s 767 mmHg 91%
    23:00 +5°C° 0 mm 4 m/s 767 mmHg 91%

    27 Februarie, Joi

    Timp Temperatura Precipitaţii Vânt Presiune Umiditate
    00:00 +5°C° 0 mm 4 m/s 766 mmHg 91%
    01:00 +5°C° 0 mm 4 m/s 766 mmHg 90%
    02:00 +5°C° 0 mm 4 m/s 765 mmHg 90%
    03:00 +5°C° 0 mm 4 m/s 765 mmHg 90%
    04:00 +5°C° 0 mm 4 m/s 765 mmHg 90%
    05:00 +5°C° 0 mm 4 m/s 765 mmHg 90%
    06:00 +6°C° 0 mm 4 m/s 765 mmHg 87%
    07:00 +7°C° 0 mm 4 m/s 765 mmHg 84%
    08:00 +8°C° 0 mm 4 m/s 765 mmHg 80%
    09:00 +11°C° 0 mm 4 m/s 765 mmHg 76%
    10:00 +13°C° 0 mm 4 m/s 764 mmHg 71%
    11:00 +15°C° 0 mm 4 m/s 764 mmHg 66%
    12:00 +15°C° 0 mm 4 m/s 764 mmHg 65%
    13:00 +17°C° 0 mm 4 m/s 763 mmHg 64%
    14:00 +16°C° 0 mm 5 m/s 763 mmHg 63%
    15:00 +15°C° 0 mm 4 m/s 762 mmHg 70%
    16:00 +14°C° 0 mm 4 m/s 762 mmHg 77%
    17:00 +12°C° 0 mm 4 m/s 762 mmHg 84%
    18:00 +11°C° 0 mm 4 m/s 762 mmHg 87%
    19:00 +10°C° 0 mm 4 m/s 762 mmHg 91%
    20:00 +10°C° 0 mm 4 m/s 762 mmHg 94%
    21:00 +10°C° 0 mm 4 m/s 762 mmHg 94%
    22:00 +10°C° 0 mm 4 m/s 761 mmHg 94%
    23:00 +10°C° 0 mm 4 m/s 761 mmHg 94%

    28 Februarie, Vineri

    Timp Temperatura Precipitaţii Vânt Presiune Umiditate
    00:00 +10°C° 0 mm 4 m/s 760 mmHg 93%
    01:00 +10°C° 0 mm 4 m/s 760 mmHg 92%
    02:00 +10°C° 0 mm 4 m/s 759 mmHg 91%
    03:00 +9°C° 0 mm 5 m/s 759 mmHg 90%
    04:00 +9°C° 0 mm 5 m/s 758 mmHg 89%
    05:00 +9°C° 0 mm 6 m/s 758 mmHg 89%
    06:00 +9°C° 0 mm 6 m/s 758 mmHg 85%
    07:00 +10°C° 0 mm 6 m/s 757 mmHg 82%
    08:00 +11°C° 0 mm 7 m/s 757 mmHg 78%
    09:00 +11°C° 0 mm 7 m/s 756 mmHg 76%
    10:00 +12°C° 0 mm 8 m/s 756 mmHg 74%
    11:00 +13°C° 0 mm 8 m/s 755 mmHg 73%
    12:00 +13°C° 0 mm 8 m/s 754 mmHg 74%
    13:00 +12°C° 0 mm 9 m/s 753 mmHg 76%
    14:00 +12°C° 0 mm 9 m/s 752 mmHg 77%
    15:00 +12°C° 2.4 mm 9 m/s 752 mmHg 84%
    16:00 +12°C° 2.4 mm 9 m/s 752 mmHg 90%
    17:00 +11°C° 2.4 mm 9 m/s 752 mmHg 96%
    18:00 +10°C° 1.5 mm 9 m/s 752 mmHg 95%
    19:00 +10°C° 1.5 mm 8 m/s 753 mmHg 93%
    20:00 +9°C° 1.5 mm 8 m/s 753 mmHg 92%
    21:00 +7°C° 0.7 mm 9 m/s 754 mmHg 92%
    22:00 +7°C° 0.7 mm 9 m/s 754 mmHg 91%
    23:00 +6°C° 0.7 mm 10 m/s 755 mmHg 91%
    Arată mai mult